Location: ??
(34.9170°N, 135.5016°E)
Time: 18:09:04
(UTC+00:00)

Cosmos 1697 Rocket - Pass Details

Date: 29 October 2020
Orbit: 831 x 845 km, 71.0° (Epoch: 01 December)

Event Time Altitude Azimuth Distance (km) Brightness Sun altitude
Exits shadow 19:19:20 28° 340° (NNW) 1,548 3.9 -24.6°
Maximum altitude 19:22:30 88° 66° (ENE) 849 2.6 -24.0°
Drops below altitude 10° 19:28:09 10° 160° (SSE) 2,455 5.4 -22.8°
Sets 19:30:35 0° 160° (SSE) 3,387 6.1 -22.3°
